Welcome to the New NWS' Forecast!
Most changes are behind the scenes, but click here for differences you might notice.
Latest weather observations around

Vaiden Fld Airport (KA08)

Using English Units (Switch to International System of Units)
Date/ Time (CDT) Wind (mph) Vis. (mi) Weather Sky Cond. Temp (°F) Rel. Humidity Wind Chill (°F) Heat Index (°F) Pressure Precip. (in)
Air Dwpt 6 hour Altimeter (inHg) Sea level (inHg) 1 hr 3 hr 6 hr
Max Min
Aug 17 03:55 Calm 10 Clear CLR 72 72     100%   74 30.04        
Aug 17 03:35 Calm 5 Fog/Mist CLR 72 72     100%   74 30.04        
Aug 17 03:15   7 Clear CLR 72 72     100%   74 30.05        
Aug 17 02:55 Calm 7 Partly Cloudy SCT008 72 72     100%   74 30.04        
Aug 17 02:35 Calm 7 Partly Cloudy SCT008 72 72     100%   74 30.05        
Aug 17 02:15 Calm 7 Partly Cloudy SCT008 73 73     100%   75 30.05        
Aug 17 01:55 Calm 7 Clear CLR 73 73     100%   75 30.04        
Aug 17 01:35   5 Fog/Mist CLR 73 73     100%   75 30.04        
Aug 17 01:15 Calm 7 Clear CLR 73 73     100%   75 30.04        
Aug 17 00:55 Calm 10 Clear CLR 74 74     100%   75 30.04       0
Aug 17 00:35 Calm 10 Clear CLR 74 74     100%   75 30.04        
Aug 17 00:15 Calm 10 Clear CLR 74 74     100%   76 30.05        
Aug 16 23:55 Calm 10 Clear CLR 74 74     100%   76 30.04        
Aug 16 23:35 Calm 10 Clear CLR 74 74     100%   76 30.04        
Aug 16 23:15 SSW 10 10 Partly Cloudy SCT011 75 74     99%   76 30.05        
Aug 16 22:55 S 7 10 Mostly Cloudy BKN011 74 74     100%   76 30.05        
Aug 16 22:35 S 3 10 Clear CLR 75 75     100%   77 30.05        
Aug 16 22:15 Calm 10 Partly Cloudy SCT060 SCT070 SCT100 75 75     100%   77 30.05        
Aug 16 21:55 Calm 7 Light Rain SCT060 SCT070 BKN120 75 75     99%   77 30.07   0 0  
Aug 16 21:35 Calm 10 Rain SCT075 BKN110 76 74     96%   77 30.08   0    
Aug 16 21:15   10 Rain SCT041 BKN050 OVC110 76 75     96%   78 30.08        
Aug 16 20:55   10 Cloudy BKN043 OVC060 78 74     88%   80 30.09        
Aug 16 20:35   10 Mostly Cloudy BKN050 BKN060 BKN090 78 75     91%   81 30.07        
Aug 16 20:15 Calm 10 Partly Cloudy SCT110 79 75     89%   82 30.05        
Aug 16 19:55 SW 3 10 Partly Cloudy SCT110 79 75     89%   83 30.04        
Aug 16 19:35 Calm 10 Partly Cloudy SCT070 80 76     89%   85 30.04        
Aug 16 19:15 Calm 10 Clear CLR 81 76     85%   86 30.03        
Aug 16 18:55 WNW 3 10 Clear CLR 81 75     83%   87 30.03        
Aug 16 18:35 W 5 10 Clear CLR 82 74     78%   88 30.03        
Aug 16 18:15 W 5 10 Clear CLR 84 77     80%   94 30.02        
Aug 16 17:55   10 Clear CLR 85 77     79%   95 30.01        
Aug 16 17:35   10 Clear CLR 86 77     73%   97 30.01        
Aug 16 17:15   10 Clear CLR 89 75     63%   100 30.01        
Aug 16 16:55   10 Partly Cloudy SCT070 SCT080 89 74     62%   99 30.01        
Aug 16 16:35 Calm 10 Mostly Cloudy SCT060 BKN080 90 75     61%   100 30.01        
Aug 16 16:15 SW 7 10 Mostly Cloudy SCT060 BKN070 90 75     62%   101 30.01        
Aug 16 15:55 SW 3 10 Partly Cloudy SCT055 SCT070 89 74     63%   98 30.01        
Aug 16 15:35 SSW 7 10 Partly Cloudy SCT035 90 74     60%   100 30.01        
Aug 16 15:15 Calm 10 Partly Cloudy SCT035 89 74     61%   99 30.02        
Aug 16 14:55 SSW 6 10 Partly Cloudy SCT033 90 75     61%   100 30.02        
Aug 16 14:35 SW 6 10 Mostly Cloudy BKN031 BKN040 BKN050 89 74     62%   99 30.02        
Aug 16 14:15 W 3 10 Partly Cloudy SCT031 SCT040 SCT050 88 74     64%   97 30.04        
Aug 16 13:55 SW 3 10 Partly Cloudy SCT031 88 74     65%   97 30.04        
Aug 16 13:35 WNW 3 10 Mostly Cloudy SCT025 BKN032 86 74     67%   95 30.05        
Aug 16 13:15 WNW 3 10 Cloudy BKN025 OVC034 86 76     71%   96 30.06        
Aug 16 12:55 WSW 7 10 Mostly Cloudy BKN027 BKN034 BKN046 86 75     70%   96 30.07        
Aug 16 12:35 W 6 10 Partly Cloudy SCT029 SCT034 85 75     71%   93 30.08        
Aug 16 12:15 Calm 10 Mostly Cloudy SCT019 SCT025 BKN034 85 76     75%   94 30.09        
Aug 16 11:55 Calm 10 Mostly Cloudy SCT019 SCT025 BKN032 83 75     77%   91 30.09        
Aug 16 11:35 WSW 3 10 Mostly Cloudy BKN015 83 76     79%   90 30.09        
Aug 16 11:15 Calm 10 Cloudy OVC013 82 75     80%   89 30.1        
Aug 16 10:55 Calm 10 Mostly Cloudy BKN013 81 75     83%   86 30.1        
Aug 16 10:35 SW 5 10 Mostly Cloudy BKN011 BKN018 80 75     85%   85 30.1        
Aug 16 10:15 Calm 10 Cloudy BKN009 OVC015 79 75     87%   84 30.09        
Aug 16 09:55 Calm 10 Cloudy OVC011 78 75     91%   80 30.09        
Aug 16 09:35 SW 3 10 Cloudy SCT008 OVC011 77 75     91%   79 30.09        
Aug 16 09:15 WSW 3 10 Cloudy OVC009 77 75     94%   79 30.09        
Aug 16 08:55 S 3 10 Cloudy OVC007 77 75     95%   78 30.09        
Aug 16 08:35 Calm 10 Cloudy OVC004 75 75     99%   77 30.09        
Aug 16 08:15 Calm 10 Cloudy OVC004 75 75     99%   77 30.09        
Aug 16 07:55 Calm 5 Fog/Mist OVC004 74 74     100%   76 30.08        
Aug 16 07:35   5 Fog/Mist OVC004 74 74     100%   76 30.08        
Aug 16 07:15   4 Fog/Mist OVC002 74 74     100%   75 30.07        
Aug 16 06:55 Calm 1.25 Fog/Mist OVC002 74 74     100%   75 30.07        
Aug 16 06:35 Calm 0.75 Fog/Mist OVC002 73 73     100%   75 30.07        
Aug 16 06:15 WSW 3 2.5 Fog/Mist OVC002 73 73     100%   75 30.07        
Aug 16 05:55 Calm 4 Fog/Mist OVC002 73 73     100%   75 30.05        
Aug 16 05:35 S 3 4 Fog/Mist OVC002 73 73     100%   75 30.05        
Aug 16 05:15 Calm 5 Fog/Mist OVC002 74 74     100%   75 30.04        
Aug 16 04:55 Calm 5 Fog/Mist OVC002 73 73     100%   75 30.04        
Aug 16 04:35 Calm 3 Fog/Mist OVC002 73 73     100%   75 30.03        
Aug 16 04:15 S 6 1.5 Fog/Mist OVC002 73 73     100%   74 30.02        
Aug 16 03:55 SSW 10 5 Fog/Mist OVC002 72 72     100%   74 30.02        
Aug 16 03:35   5 Fog/Mist BKN002 72 72     100%   73 30.01        
Aug 16 03:15   5 Fog/Mist CLR 72 72     100%   73 30.01        
Aug 16 02:55 Calm 5 Fog/Mist CLR 72 72     100%   73 30        
Aug 16 02:35   4 Fog/Mist CLR 72 72     100%   73 29.99        
Aug 16 02:15 Calm 5 Fog/Mist CLR 72 72     100%   74 29.99        
Aug 16 01:55   5 Fog/Mist SCT005 72 72     100%   74 29.99        
Aug 16 01:35   5 Fog/Mist SCT005 72 72     100%   74 29.99        
Aug 16 01:15   5 Fog/Mist CLR 72 72     100%   74 29.99        
Aug 16 00:55   5 Fog/Mist CLR 73 73     100%   74 29.99        
Aug 16 00:35 Calm 10 Clear CLR 73 73     100%   75 29.99        
Aug 16 00:15 Calm 5 Fog/Mist CLR 73 73     100%   75 29.99        
Aug 15 23:55   7 Clear CLR 73 73     100%   75 29.99        
Aug 15 23:35 Calm 10 Clear CLR 73 73     100%   75 29.99        
Aug 15 23:15   10 Clear CLR 73 73     100%   75 29.99        
Aug 15 22:55 SSE 5 10 Clear CLR 74 74     100%   76 29.99        
Aug 15 22:35 Calm 10 Clear CLR 74 74     100%   76 29.99        
Aug 15 22:15 Calm 10 Clear CLR 74 74     100%   76 29.99        
Aug 15 21:55   7 Clear CLR 74 74     100%   76 29.99        
Aug 15 21:35 Calm 10 Partly Cloudy SCT004 74 74     100%   76 29.99        
Aug 15 21:15 Calm 10 Partly Cloudy SCT004 74 74     100%   76 30        
Aug 15 20:55 Calm 10 Partly Cloudy SCT003 74 74     100%   76 29.99        
Aug 15 20:35 Calm 10 Partly Cloudy SCT003 74 74     100%   76 29.98        
Aug 15 20:15 SSE 5 10 Clear CLR 74 74     100%   76 29.98        
Aug 15 19:55 S 3 10 Partly Cloudy SCT038 SCT045 74 74     100%   76 29.99        
Aug 15 19:35   10 Mostly Cloudy BKN036 BKN042 74 74     100%   76 30        
Aug 15 19:15 Calm 10 Partly Cloudy SCT034 74 74     99%   76 30        
Aug 15 18:55 SSE 5 10 Light Drizzle SCT042 SCT060 74 74     100%   76 29.99       0
Aug 15 18:35 SSE 3 10 Light Rain SCT042 BKN055 BKN065 74 74     99%   76 30        
Aug 15 18:15 SSE 5 10 Light Rain SCT048 BKN060 BKN065 74 73     98%   76 30        
Aug 15 17:55 S 9 10 Light Drizzle SCT005 SCT048 74 73     99%   75 29.99   0    
Aug 15 17:35 SSE 5 10 Clear CLR 74 74     100%   76 29.98   0    
Aug 15 17:15   10 Light Rain SCT110 74 74     99%   76 29.97   0    
Aug 15 16:55 SSE 6 10 Light Rain SCT120 75 75     99%   77 29.96        
Aug 15 16:35   10 Light Rain SCT085 75 74     97%   77 29.96        
Aug 15 16:15 SSE 7 10 Light Rain BKN085 OVC110 76 76     98%   78 29.96        
Aug 15 15:55 S 5 7 Light Rain SCT022 BKN085 OVC110 77 76     96%   79 29.95   0 0  
Aug 15 15:35 Calm 10 Light Rain SCT022 BKN050 OVC100 79 76     91%   84 29.95   0    
Aug 15 15:15 NNW 7 7 Light Rain SCT038 BKN075 OVC100 80 77     90%   86 29.93   0    
Aug 15 14:55 WNW 9 10 Light Rain SCT023 BKN036 OVC100 86 78     78%   98 29.93        
Aug 15 14:35 Calm 10 Partly Cloudy SCT036 SCT044 91 76     60%   103 29.92        
Aug 15 14:15   10 Partly Cloudy SCT034 SCT040 91 76     62%   103 29.94        
Aug 15 13:55 NW 5 10 Partly Cloudy SCT034 SCT040 90 76     64%   102 29.93        
Aug 15 13:35 W 5 10 Partly Cloudy SCT030 89 75     63%   100 29.94        
Aug 15 13:15 SW 5 10 Partly Cloudy SCT028 89 76     66%   100 29.95        
Aug 15 12:55 WNW 6 10 Partly Cloudy SCT026 SCT050 88 76     69%   99 29.95        
Aug 15 12:35 NNW 3 10 Partly Cloudy SCT023 SCT034 SCT048 88 76     69%   99 29.96        
Aug 15 12:15 WNW 5 10 Mostly Cloudy BKN023 BKN030 BKN034 87 76     70%   98 29.98        
Aug 15 11:55 Calm 10 Cloudy BKN023 OVC030 85 76     73%   95 29.99        
Aug 15 11:35 NW 3 10 Cloudy OVC023 85 76     75%   95 29.99        
Aug 15 11:15 NW 6 10 Cloudy BKN019 OVC026 85 76     76%   94 30        
Aug 15 10:55 WNW 6 10 Cloudy OVC019 85 76     76%   94 30        
Aug 15 10:35 WNW 8 10 Cloudy OVC019 84 76     78%   93 30        
Aug 15 10:15 WNW 7 10 Mostly Cloudy BKN017 84 76     79%   93 30        
Aug 15 09:55 WNW 6 10 Mostly Cloudy BKN015 BKN021 83 76     81%   91 30        
Aug 15 09:35 WNW 3 10 Mostly Cloudy BKN013 BKN018 80 76     87%   86 29.99        
Aug 15 09:15 WSW 5 10 Partly Cloudy SCT009 SCT015 79 77     93%   83 29.99        
Aug 15 08:55 SW 3 10 Mostly Cloudy BKN007 77 76     96%   79 29.99        
Aug 15 08:35 SW 3 10 Mostly Cloudy BKN005 76 76     100%   78 29.99        
Aug 15 08:15 WSW 3 7 Cloudy OVC003 75 75     100%   77 29.98        
Aug 15 07:55 Calm 5 Fog/Mist OVC003 74 74     100%   76 29.97        
Aug 15 07:35 Calm 4 Fog/Mist OVC003 74 74     100%   76 29.97        
Aug 15 07:15 Calm 1.25 Fog/Mist OVC003 74 74     100%   75 29.96        
Aug 15 06:55 Calm 0.25 Fog OVC003 73 73     100%   75 29.96        
Aug 15 06:35 Calm 0.25 Fog OVC003 73 73     100%   74 29.95        
Aug 15 06:15 Calm 0.25 Fog OVC003 73 73     100%   74 29.95        
Aug 15 05:55 Calm 0.25 Fog OVC003 73 73     100%   74 29.94        
Aug 15 05:35 Calm 0.25 Fog OVC003 73 73     100%   74 29.93        
Aug 15 05:15 Calm 0.25 Fog OVC003 72 72     100%   74 29.93        
Aug 15 04:55 Calm 0.25 Fog OVC003 72 72     100%   74 29.93        
Aug 15 04:35 Calm 0.75 Fog/Mist OVC003 72 72     100%   74 29.93        
Aug 15 04:15   2.5 Fog/Mist OVC003 73 73     100%   74 29.93        
Aug 15 03:55 Calm 3 Fog/Mist BKN003 BKN008 73 73     100%   74 29.92        
Aug 15 03:35 Calm 3 Fog/Mist BKN003 BKN008 73 73     100%   74 29.92        
Aug 15 03:15 Calm 3 Fog/Mist SCT003 73 73     100%   75 29.92        
Aug 15 02:55 Calm 4 Fog/Mist SCT003 73 73     100%   75 29.92        
Aug 15 02:35   5 Fog/Mist CLR 73 73     100%   75 29.92        
Aug 15 02:15   7 Clear CLR 73 73     100%   75 29.92        
Aug 15 01:55 Calm 7 Clear CLR 74 74     100%   75 29.91        
Aug 15 01:35 Calm 7 Clear CLR 74 74     100%   75 29.91        
Aug 15 01:15 Calm 7 Clear CLR 74 74     100%   75 29.91        
Aug 15 00:55 Calm 5 Fog/Mist CLR 74 74     100%   76 29.92        
Aug 15 00:35 Calm 7 Clear CLR 74 74     100%   76 29.92        
Aug 15 00:15 SSE 3 7 Clear CLR 74 74     100%   76 29.93        
Aug 14 23:55 Calm 10 Clear CLR 74 74     100%   76 29.93        
Aug 14 23:35 Calm 10 Clear CLR 74 74     100%   76 29.94        
Aug 14 23:15 Calm 10 Clear CLR 75 74     99%   76 29.94        
Aug 14 22:55 SSE 3 10 Clear CLR 75 75     99%   77 29.93        
Aug 14 22:35 SSE 3 10 Partly Cloudy SCT050 75 74     98%   77 29.94        
Aug 14 22:15 Calm 10 Mostly Cloudy BKN038 SCT043 BKN055 76 74     95%   78 29.94        
Aug 14 21:55 Calm 10 Cloudy BKN036 OVC043 76 75     97%   78 29.94        
Aug 14 21:35 Calm 10 Mostly Cloudy BKN036 BKN045 76 76     100%   78 29.94        
Aug 14 21:15 S 5 10 Clear CLR 76 76     100%   78 29.94        
Aug 14 20:55 Calm 10 Clear CLR 76 76     100%   79 29.94        
Aug 14 20:35 Calm 10 Clear CLR 77 77     99%   79 29.93        
Aug 14 20:15 Calm 10 Clear CLR 77 77     99%   79 29.92        
Aug 14 19:55 SSE 3 10 Clear CLR 78 77     98%   80 29.91        
Aug 14 19:35 Calm 10 Clear   78 78     99%   81 29.92        
Aug 14 19:15 Calm 10 Clear   78 78     99%   82 29.92        
Aug 14 18:55 Calm 10 Clear   79 78     98%   83 29.91       1
Aug 14 18:35 Calm 10 Clear CLR 79 78     97%   83 29.9        
Aug 14 18:15 Calm 10 Clear CLR 79 78     95%   83 29.9        
Aug 14 17:55 Calm 10 Clear CLR 79 77     94%   84 29.9        
Aug 14 17:35 Calm 10 Clear CLR 80 77     93%   85 29.9        
Aug 14 17:15 Calm 10 Clear CLR 80 78     94%   85 29.9        
Aug 14 16:55 Calm 10 Clear CLR 80 76     88%   85 29.89        
Aug 14 16:35 Calm 10 Clear CLR 80 77     91%   85 29.88        
Aug 14 16:15 Calm 10 Clear CLR 77 77     100%   79 29.88        
Aug 14 15:55 ESE 3 5 Light Rain SCT044 SCT060 BKN070 76 76     100%   78 29.88   0 1  
Aug 14 15:35   7 Light Rain SCT029 BKN046 OVC080 76 76     100%   78 29.9   0    
Aug 14 15:15 Calm 4 Rain SCT045 BKN065 OVC085 76 76     100%   78 29.89   0    
Aug 14 14:55 E 3 1.5 Heavy Rain BKN018 BKN034 OVC050 75 75     99%   77 29.9   1    
Aug 14 14:35 NNW 11 1 Heavy Rain BKN013 BKN022 OVC032 75 75     99%   77 29.91   0    
Aug 14 14:15   10 Mostly Cloudy BKN042 BKN050 BKN060 85 74     69%   94 29.89        
Aug 14 13:55 NW 8 10 Light Rain SCT041 BKN047 BKN050 89 76     65%   100 29.89        
Aug 14 13:35 W 5 10 Mostly Cloudy SCT039 BKN047 BKN060 92 75     58%   103 29.89        
Aug 14 13:15 WNW 6 10 Partly Cloudy SCT048 SCT065 SCT075 92 74     57%   102 29.9        
Aug 14 12:55   10 Partly Cloudy SCT047 SCT065 SCT075 91 75     60%   102 29.91        
Aug 14 12:35 WNW 6 10 Clear   90 76     62%   102 29.92        
Aug 14 12:15 WSW 7 10 Clear   89 75     62%   99 29.93        
Aug 14 11:55 W 7 10 Clear   89 75     63%   100 29.93        
Aug 14 11:35 WNW 8 10 Mostly Cloudy SCT032 BKN039 89 76     65%   100 29.93        
Aug 14 11:15 W 7 10 Partly Cloudy SCT029 SCT037 90 76     64%   101 29.93        
Aug 14 10:55 WNW 8 10 Clear CLR 89 76     65%   100 29.92        
Aug 14 10:35 WNW 8 10 Clear CLR 88 76     68%   98 29.93        
Aug 14 10:15 W 8 10 Clear CLR 87 76     69%   97 29.93        
Aug 14 09:55 W 7 10 Clear CLR 86 75     71%   95 29.93        
Aug 14 09:35 W 6 10 Clear CLR 85 76     74%   94 29.93        
Aug 14 09:15 WSW 3 10 Clear CLR 84 76     78%   93 29.93        
Aug 14 08:55 WSW 3 10 Clear CLR 83 77     83%   91 29.93        
Aug 14 05:55   3 Fog/Mist CLR 74 74     100%   75 29.92        
Aug 14 05:35 Calm 5 Fog/Mist SCT003 74 74     100%   76 29.91        
Aug 14 05:15 Calm 4 Fog/Mist CLR 74 74     100%   76 29.91        
Aug 14 04:55 Calm 2.5 Fog/Mist SCT003 74 74     100%   76 29.92        
Aug 14 04:35 Calm 1.75 Fog/Mist OVC001 74 74     100%   76 29.91        
Aug 14 04:15 SSE 3 3 Fog/Mist BKN001 74 74     100%   76 29.91        
Aug 14 03:35 Calm 5 Fog/Mist CLR 75 75     100%   77 29.9        
Aug 14 03:15 Calm 4 Fog/Mist CLR 75 75     100%   77 29.89        
Aug 14 02:55 Calm 4 Fog/Mist CLR 75 75     100%   77 29.89        
Aug 14 02:35 Calm 5 Fog/Mist CLR 75 75     100%   77 29.89        
Aug 14 02:15 Calm 5 Fog/Mist CLR 75 75     100%   77 29.89        
Aug 14 01:55 Calm 5 Fog/Mist CLR 75 75     100%   77 29.89        
Aug 14 01:15 Calm 5 Fog/Mist CLR 75 75     100%   77 29.9        
Aug 14 00:35 Calm 5 Fog/Mist CLR 75 75     100%   77 29.92        
Aug 14 00:15 Calm 7 Clear CLR 75 75     100%   77 29.93        
Aug 13 23:35 Calm 5 Fog/Mist CLR 76 76     100%   78 29.93        
Aug 13 22:55 Calm 7 Clear CLR 77 77     100%   79 29.94        
Aug 13 22:35 Calm 7 Clear   77 77     100%   79 29.94        
Aug 13 22:15 Calm 7 Clear   77 77     100%   79 29.94        
Aug 13 21:55 Calm 10 Clear   78 78     99%   80 29.94        
Aug 13 21:35 Calm 7 Clear CLR 78 78     100%   80 29.93        
Aug 13 19:35 W 7 10 Clear CLR 83 78     87%   92 29.9        
Aug 13 18:55 Calm 10 Clear CLR 86 76     72%   96 29.91        
Aug 13 18:35 Calm 10 Clear CLR 88 73     62%   96 29.91        
Aug 13 17:35 NW 5 10 Clear CLR 91 72     54%   99 29.91        
Aug 13 17:15 NNW 6 10 Clear CLR 91 72     54%   99 29.91        
Aug 13 16:35 Calm 10 Clear CLR 91 72     54%   98 29.91        
Aug 13 14:55 NW 6 10 Clear CLR 91 72     55%   99 29.92        
Aug 13 14:35 NNW 6 10 Clear CLR 90 72     56%   97 29.92        
Aug 13 13:15 NW 6 10 Partly Cloudy SCT040 SCT045 90 74     60%   99 29.95        
Aug 13 12:55   10 Partly Cloudy SCT032 89 74     62%   98 29.96        
Aug 13 11:35 Calm 10 Mostly Cloudy BKN027 BKN033 86 74     69%   94 29.98        
Aug 13 10:35 Calm 10 Cloudy BKN018 OVC027 85 76     74%   93 29.99        
Aug 13 10:15 Calm 10 Partly Cloudy SCT016 81 74     81%   86 29.99        
Aug 13 08:35 Calm 0.25 Fog OVC003 75 75     100%   77 29.97        
Notice The following observation data may not be complete
Aug 13 08:15   0.25 Fog OVC003          %              
Aug 13 07:35 Calm 1.25 Fog/Mist OVC003 74 74     100%   76 29.97        
Notice The following observation data may not be complete
Aug 13 07:15   2 Fog/Mist OVC003          %              
Aug 13 07:00 Calm 0.75 Fog/Mist OVC005 73 73     100%   75 29.97        
Aug 13 06:35 Calm 0.5 Fog OVC003 72 72     100%   74 29.96        
Aug 13 06:15   0.75 Fog/Mist OVC003 72 72     100%   74 29.95        
Aug 13 05:35 Calm 0.25 Fog OVC003 72 72     100%   74 29.94        
Notice The following observation data may not be complete
Aug 13 05:15   2.5 Fog/Mist BKN003          %              
Aug 13 04:55 Calm 5 Fog/Mist SCT003 72 72     100%   74 29.93        
Aug 13 04:35 Calm 4 Fog/Mist SCT003 73 73     100%   74 29.93        
Aug 13 03:35 Calm 7 Clear CLR 73 73     100%   75 29.92        
Notice The following observation data may not be complete
Aug 13 03:15   5 Fog/Mist SCT002          %              
Aug 13 02:35 Calm 3 Fog/Mist CLR 74 74     100%   75 29.91        
Aug 13 02:15 Calm 3 Fog/Mist CLR 74 74     100%   76 29.91        
Aug 13 01:55 Calm 3 Fog/Mist SCT002 74 74     100%   76 29.92        
Aug 13 01:15 Calm 3 Fog/Mist CLR 74 74     100%   76 29.93        
Aug 13 00:55 Calm 4 Fog/Mist CLR 75 75     100%   77 29.94        
Aug 13 00:35 Calm 3 Fog/Mist CLR 75 75     100%   77 29.94        
Aug 12 23:55 Calm 4 Fog/Mist CLR 75 75     100%   77 29.94        
Notice The following observation data may not be complete
Aug 12 23:35   5 Fog/Mist CLR          %              
Aug 12 23:15 Calm 5 Fog/Mist CLR 76 76     100%   78 29.95        
Aug 12 22:35 Calm 7 Clear CLR 76 76     100%   78 29.95        
Aug 12 22:15 Calm 4 Fog/Mist CLR 76 76     100%   78 29.95        
Aug 12 21:55 Calm 7 Partly Cloudy SCT110 77 77     100%   79 29.95        
Aug 12 21:35 Calm 7 Partly Cloudy SCT110 77 77     100%   79 29.94        
Aug 12 21:15 Calm 7 Partly Cloudy SCT120 77 77     100%   79 29.94        
Aug 12 20:35 Calm 7 Partly Cloudy SCT110 78 78     99%   80 29.93        
Notice The following observation data may not be complete
Aug 12 19:55   10 Partly Cloudy SCT110          %              
Notice The following observation data may not be complete
Aug 12 19:15   10 Cloudy SCT026 SCT033 OVC043          %              
Aug 12 18:35 Calm 10 Partly Cloudy SCT028 83 77     82%   92 29.92        
Aug 12 17:55 Calm 10 Partly Cloudy SCT120 84 76     77%   93 29.91        
Aug 12 17:35 Calm 10 Mostly Cloudy BKN120 82 76     82%   90 29.92        
Aug 12 16:55 Calm 10 Mostly Cloudy SCT039 SCT050 BKN110 81 74     80%   86 29.92        
Aug 12 15:55 N 5 10 Cloudy BKN026 BKN034 OVC047 87 78     75%   100 29.92     0  
Notice The following observation data may not be complete
Aug 12 15:15   10 Mostly Cloudy SCT026 SCT035 BKN046          %              
Aug 12 14:55 E 5 10 Partly Cloudy SCT044 SCT050 SCT080 85 78     81%   97 29.93        
Aug 12 13:15 SSE 5 1 Haze BKN021 OVC030 84 76     78%   93 29.97        
Aug 12 12:55 SE 3 10 Cloudy SCT016 BKN021 OVC042 84 76     79%   93 29.98        
Aug 12 12:35 ESE 5 10 Mostly Cloudy SCT016 BKN023 BKN043 84 77     81%   93 29.98        
Aug 12 11:55 Calm 10 Cloudy BKN016 OVC023 83 76     81%   91 29.98        
Aug 12 10:55 Calm 10 Cloudy SCT007 OVC012 79 76     91%   84 29.99        
Aug 12 10:15 Calm 10 Cloudy OVC007 78 77     97%   80 30        
Notice The following observation data may not be complete
Aug 12 09:35   7 Cloudy OVC005          %              
Aug 12 08:35 Calm 1.25 Fog/Mist OVC003 76 76     100%   78 29.99        
Aug 12 08:15 Calm 0.75 Fog/Mist OVC003 75 75     100%   77 29.98        
Aug 12 02:55 Calm 7 Clear CLR 73 73     100%   75 29.95        
Aug 12 02:35 Calm 5 Partly Cloudy SCT006 73 73     100%   75 29.94        
Aug 12 02:15 Calm 3 Partly Cloudy SCT006 73 73     100%   75 29.95        
Aug 12 01:55 Calm 5 Mostly Cloudy BKN006 74 74     100%   76 29.95        
Aug 12 01:35 Calm 4 Fog/Mist BKN006 74 74     100%   76 29.95        
Aug 11 23:55 Calm 10 Clear CLR 74 74     100%   76 29.97        
Aug 11 21:35 Calm 4 Fog/Mist CLR 77 77     100%   79 29.99        
Aug 11 21:15 Calm 7 Clear CLR 77 77     100%   79 29.99        
Aug 11 20:55 Calm 10 Partly Cloudy SCT012 SCT017 SCT030 77 77     100%   79 29.99        
Aug 11 16:35 SSW 6 10 Mostly Cloudy SCT030 BKN044 BKN050 87 74     65%   96 29.98        
Aug 11 16:15 SSW 3 10 Partly Cloudy SCT030 88 74     64%   97 29.97        
Aug 11 15:55 W 5 10 Clear CLR 88 74     64%   97 29.98        
Aug 11 12:15 SW 3 10 Cloudy BKN014 OVC023 82 74     78%   88 30.07        
Notice The following observation data may not be complete
Aug 11 11:35   10 Cloudy BKN016 OVC021          %              
Aug 11 09:35 SW 3 10 Cloudy OVC007 76 74     94%   78 30.09        
Aug 11 09:15 SW 3 10 Cloudy OVC007 75 74     96%   77 30.1        
Aug 11 08:55   10 Cloudy OVC007 75 74     96%   77 30.11        
Aug 11 08:35 WSW 3 10 Cloudy OVC005 75 74     97%   77 30.1        
Aug 11 08:15 SW 3 7 Cloudy OVC005 74 74     99%   76 30.1        
Aug 11 07:55 SW 6 10 Cloudy OVC005 74 74     99%   76 30.1        
Aug 07 14:15 WSW 5 10 Partly Cloudy SCT036 SCT042 89 71     56%   95 29.97        
Aug 07 13:55 S 6 10 Partly Cloudy SCT030 SCT038 87 72     61%   95 29.97        
Aug 07 13:35 SSW 8 10 Partly Cloudy SCT030 87 74     64%   96 29.97        
Aug 07 13:15 SSW 9 10 Clear CLR 87 74     64%   96 29.98        
Aug 07 11:30 Calm 10 Partly Cloudy SCT021 SCT026 84 75     75%   92 30.02        
Aug 07 11:15 SSW 5 10 Partly Cloudy SCT019 SCT026 84 75     76%   92 30.02        
Aug 07 10:55 WSW 6 10 Mostly Cloudy BKN017 BKN024 83 76     79%   90 30.03        
Aug 07 09:55 SSW 5 10 Mostly Cloudy BKN014 81 76     85%   88 30.02        
Aug 07 09:35 SW 3 10 Mostly Cloudy BKN014 BKN120 81 76     86%   87 30.02        
Aug 07 09:10 SW 3 10 Cloudy BKN014 BKN020 OVC120 81 76     86%   87 30.02        
Aug 07 08:55   10 Cloudy BKN012 OVC017 79 76     90%   83 30.02        
Aug 07 08:30   10 Cloudy OVC008 79 77     92%   84 30.02        
Aug 07 08:20   10 Cloudy BKN008 OVC012 79 77     93%   83 30.02        
Aug 07 06:40 SSW 5 5 Fog/Mist OVC004 76 76     100%   78 29.99        
Aug 07 06:10   7 Cloudy OVC004 75 75     100%   77 29.99        
Aug 07 05:55 S 8 7 Cloudy OVC004 75 75     100%   77 29.99        
Aug 07 05:15 SSW 9 7 Cloudy OVC004 75 75     100%   77 30        
Aug 07 04:55 S 9 7 Cloudy OVC004 75 75     100%   77 29.99        
Aug 07 04:35 S 8 7 Cloudy OVC006 74 74     100%   76 29.99        
Aug 07 04:15 S 5 7 Cloudy OVC006 74 74     100%   76 29.99        
Aug 07 03:55 S 5 7 Mostly Cloudy BKN008 BKN085 74 74     100%   76 29.99        
Aug 07 03:35 SSE 3 7 Partly Cloudy SCT010 SCT085 74 74     100%   76 29.99        
Aug 07 03:15 SSE 3 7 Mostly Cloudy SCT010 BKN085 74 74     100%   76 29.99        
Aug 07 02:55 Calm 7 Mostly Cloudy SCT010 BKN085 74 74     100%   76 30        
Aug 07 02:35 Calm 7 Clear CLR 74 74     100%   76 30        
Aug 07 02:15 Calm 7 Clear CLR 74 74     100%   76 29.99        
Aug 07 01:55 Calm 7 Clear CLR 73 73     100%   75 29.99        
Aug 07 01:35 SSE 3 7 Partly Cloudy SCT070 73 73     100%   75 30        
Aug 07 01:15 Calm 10 Mostly Cloudy BKN060 74 74     100%   76 30        
Aug 07 00:55 Calm 10 Cloudy OVC060 74 74     99%   76 30       0
Aug 07 00:35 SE 3 10 Cloudy OVC060 74 74     99%   76 30        
Aug 07 00:15   7 Cloudy OVC060 74 74     100%   76 30        
Aug 06 23:55 Calm 10 Mostly Cloudy BKN060 BKN080 74 74     99%   76 30.01        
Aug 06 23:35 Calm 10 Partly Cloudy SCT080 74 74     100%   76 30.01        
Aug 06 23:15 Calm 10 Clear CLR 74 74     99%   76 30        
Aug 06 22:55 Calm 10 Clear CLR 75 74     99%   76 30        
Aug 06 22:35 Calm 10 Partly Cloudy SCT120 75 74     97%   77 30        
Aug 06 22:15 S 3 10 Mostly Cloudy SCT060 BKN120 75 74     96%   77 30        
Aug 06 21:55 SSE 5 10 Mostly Cloudy SCT060 BKN070 BKN085 76 74     95%   77 30     0  
Aug 06 21:35 S 3 10 Cloudy SCT060 BKN070 OVC080 76 74     95%   77 30        
Aug 06 21:15 S 3 10 Light Drizzle BKN050 OVC070 75 74     96%   77 30        
Aug 06 20:55   10 Rain SCT015 BKN050 OVC085 76 75     95%   78 30        
Aug 06 20:35   10 Cloudy SCT015 BKN042 OVC055 78 77     98%   80 29.99        
Aug 06 20:15 Calm 10 Cloudy OVC055 79 77     95%   83 29.98        
Aug 06 19:55 Calm 10 Mostly Cloudy BKN055 79 77     94%   83 29.97        
Aug 06 19:35 Calm 10 Partly Cloudy SCT060 SCT080 79 77     93%   84 29.97        
Aug 06 19:15 Calm 10 Partly Cloudy SCT041 SCT060 SCT080 80 76     89%   85 29.96        
Aug 06 18:55 Calm 10 Mostly Cloudy SCT041 BKN060 BKN070 80 76     87%   85 29.96       0
Aug 06 18:35 S 3 10 Clear CLR 81 75     84%   86 29.96        
Aug 06 18:15 S 3 10 Partly Cloudy SCT060 81 75     82%   87 29.96        
Aug 06 17:55 S 3 10 Clear CLR 82 75     79%   89 29.95        
Aug 06 17:20   10 Clear CLR 80 74     81%   85 29.97        
Aug 06 16:55 SSE 8 10 Clear CLR 78 74     88%   80 29.98        
Aug 06 16:35 SSE 6 10 Clear CLR 77 74     90%   78 29.98        
Aug 06 16:15   10 Clear CLR 77 73     89%   78 29.99        
Aug 06 15:55 S 7 10 Partly Cloudy SCT026 SCT035 SCT050 78 74     87%   80 29.99     0  
Aug 06 14:30 SW 3 10 Clear CLR 80 75     86%   85 29.99        
Aug 06 14:15   10 Partly Cloudy SCT055 SCT065 SCT080 78 75     90%   82 29.99        
Aug 06 13:55 Calm 10 Light Rain SCT014 BKN055 OVC065 77 76     97%   79 30   0    
Aug 06 13:35 WNW 6 5 Light Rain SCT010 BKN022 OVC065 77 76     97%   79 30   0    
Aug 06 13:15 S 5 1.5 Heavy Rain BKN020 OVC032 77 76     95%   79 30.01   0    
Aug 06 12:55 Calm 1.5 Light Rain SCT017 BKN033 OVC060 78 76     95%   79 30.01   0   0
Aug 06 12:35 Calm 4 Light Rain SCT030 BKN055 OVC110 78 76     94%   81 30.01   0    
Aug 06 10:10 S 10 10 Cloudy SCT016 OVC050 83 75     77%   90 30.02        
Aug 06 08:50 S 7 10 Cloudy OVC005 79 75     89%   83 30.03        
Aug 06 08:35 SSE 9 10 Cloudy OVC003 77 75     94%   79 30.03        
Aug 06 08:20 SSE 7 7 Cloudy OVC003 76 75     97%   78 30.03        
Aug 06 07:55 SSE 5 4 Fog/Mist OVC003 75 75     100%   77 30.04        
Aug 06 07:35 SSE 3 3 Fog/Mist OVC003 74 74     100%   76 30.04        
Aug 06 07:15 Calm 1 Fog/Mist OVC003 74 74     100%   76 30.04        
Aug 06 06:55 SSE 3 1 Fog/Mist OVC003 73 73     100%   75 30.04        
Aug 06 06:35 SSE 3 1.25 Fog/Mist OVC003 73 73     100%   75 30.03        
Aug 06 06:15 SE 3 1.75 Fog/Mist OVC003 72 72     100%   74 30.03        
Aug 06 05:55 Calm 5 Fog/Mist OVC003 72 72     100%   74 30.02        
Aug 06 05:35 Calm 5 Fog/Mist OVC003 72 72     100%   74 30.02        
Aug 06 05:15 Calm 5 Fog/Mist SCT003 72 72     100%   74 30.02        
Aug 06 04:55   5 Fog/Mist SCT003 72 72     100%   74 30.01        
Aug 06 04:35 Calm 5 Fog/Mist CLR 72 72     100%   74 30.01        
Aug 06 04:15 Calm 7 Clear CLR 73 73     100%   74 30.01        
Aug 06 03:55 SSE 3 7 Clear CLR 72 72     100%   74 30        
Aug 06 03:35   7 Clear CLR 73 73     100%   74 30        
Aug 06 03:15   7 Clear CLR 73 73     100%   75 29.99        
Aug 06 02:55 Calm 7 Clear CLR 73 73     100%   75 29.99        
Aug 06 02:35 Calm 7 Clear CLR 73 73     100%   75 29.99        
Aug 06 02:15 Calm 10 Clear CLR 74 74     99%   76 29.99        
Aug 06 01:55 SSE 3 10 Clear CLR 74 73     99%   75 29.99        
Aug 06 01:35 Calm 10 Clear CLR 74 74     98%   76 29.99        
Aug 06 01:15 Calm 10 Clear CLR 75 74     96%   76 29.99        
Aug 06 00:55 Calm 10 Clear CLR 75 74     96%   77 29.99        
Aug 06 00:35 SSE 3 10 Clear CLR 75 74     96%   77 29.99        
Aug 06 00:15 Calm 10 Clear CLR 75 74     96%   77 30        
Aug 05 23:55 Calm 10 Clear CLR 76 74     95%   77 30        
Aug 05 23:35 SSE 5 10 Clear CLR 76 75     97%   77 30        
Aug 05 23:15 Calm 10 Clear CLR 76 75     97%   78 30        
Aug 05 22:55 Calm 10 Clear CLR 76 75     97%   78 30.01        
Aug 05 22:35 Calm 10 Clear CLR 77 75     95%   78 30.02        
Aug 05 22:15 SSE 3 10 Clear CLR 77 75     93%   79 30.02        
Aug 05 21:55 Calm 10 Clear CLR 77 75     93%   79 30.01        
Aug 05 21:35 Calm 10 Partly Cloudy SCT110 78 75     92%   80 30.02        
Aug 05 21:15 Calm 10 Partly Cloudy SCT110 79 75     86%   83 30.01        
Aug 05 20:55 Calm 10 Mostly Cloudy BKN110 80 75     85%   84 30.01        
Aug 05 20:35 SSW 3 10 Mostly Cloudy BKN110 80 74     83%   85 30.01        
Aug 05 20:15 Calm 10 Mostly Cloudy BKN110 81 74     81%   86 30.01        
Aug 05 19:55 Calm 10 Mostly Cloudy BKN110 81 75     80%   88 30        
Aug 05 19:35 SSW 3 10 Clear CLR 83 75     77%   90 30        
Aug 05 19:15   10 Clear CLR 84 75     74%   92 30        
Aug 05 18:55   10 Clear CLR 86 74     69%   94 29.99        
Aug 05 18:35 S 8 10 Clear CLR 88 73     61%   96 29.99        
Aug 05 15:30 SSW 8 10 Clear CLR 92 69     47%   96 30.01        
Aug 05 15:15 SSW 5 10 Partly Cloudy SCT047 91 70     50%   97 30.01        
Aug 05 14:55 N 3 10 Partly Cloudy SCT047 92 68     46%   96 30.02        
Aug 05 14:35 W 3 10 Partly Cloudy SCT042 SCT050 90 71     52%   97 30.02        
Aug 05 14:15 SSE 5 10 Mostly Cloudy SCT040 BKN046 BKN055 90 72     55%   98 30.02        
Aug 05 11:50 ESE 5 10 Partly Cloudy SCT065 88 73     62%   95 30.06        
Aug 05 11:30 Calm 10 Partly Cloudy SCT035 88 73     62%   96 30.06        
Aug 05 11:10 Calm 10 Clear CLR 86 73     65%   93 30.07        
Aug 05 10:55 Calm 10 Clear CLR 86 73     67%   93 30.07        
Aug 05 10:35 ENE 3 10 Clear CLR 85 74     69%   92 30.07        
Aug 05 10:15 Calm 10 Clear CLR 83 74     73%   90 30.07        
Aug 05 09:55 Calm 10 Clear CLR 83 74     74%   89 30.07        
Aug 05 09:35 Calm 10 Clear CLR 82 73     76%   87 30.07        
Aug 05 09:15 SSE 5 10 Clear CLR 80 72     78%   84 30.07        
Aug 05 08:55 SE 3 10 Clear CLR 80 72     79%   83 30.08        
Aug 05 08:35   10 Clear CLR 78 71     80%   80 30.07        
Aug 05 08:15   10 Clear CLR 77 71     81%   78 30.06        
Aug 05 07:55 Calm 10 Clear CLR 75 71     87%   76 30.06        
Aug 05 07:35 Calm 10 Clear CLR 73 71     92%   75 30.05        
Aug 05 07:15 Calm 10 Clear CLR 72 71     96%   74 30.04        
Aug 05 06:55 Calm 10 Clear CLR 71 71     100%   73 30.04        
Aug 05 06:35 Calm 7 Clear CLR 70 70     100%   72 30.04        
Aug 05 06:15 Calm 10 Clear CLR 71 71     100%   72 30.03        
Aug 05 05:55 Calm 7 Clear CLR 71 71     100%   72 30.02        
Aug 05 05:35 WNW 5 7 Clear CLR 71 71     100%   72 30.03        
Aug 05 05:15 Calm 7 Partly Cloudy SCT002 71 71     100%   73 30.03        
Aug 05 04:55 Calm 7 Mostly Cloudy BKN002 72 72     100%   74 30.02        
Aug 05 04:35 Calm 10 Cloudy OVC002 72 72     100%   73 30.02        
Aug 05 04:10 Calm 10 Partly Cloudy SCT002 72 72     100%   74 30.01        
Aug 05 03:55 Calm 10 Clear CLR 72 72     100%   74 30.01        
Aug 05 03:35 Calm 7 Clear CLR 72 72     100%   74 30.01        
Aug 05 03:15 Calm 10 Clear CLR 72 72     100%   74 30.01        
Aug 05 02:55 Calm 10 Clear CLR 72 72     100%   74 30.01        
Aug 05 02:35 Calm 10 Clear CLR 73 73     100%   75 30.01        
Aug 05 02:15 Calm 10 Clear CLR 73 73     100%   75 30.01        
Aug 05 01:55 Calm 10 Clear CLR 73 73     100%   75 30.01        
Aug 05 01:35 Calm 10 Clear CLR 74 74     100%   76 30.01        
Aug 05 01:15 Calm 10 Clear CLR 74 74     100%   75 30.01        
Aug 05 00:55 Calm 10 Clear CLR 74 74     99%   76 30.01        
Aug 05 00:35 Calm 10 Clear CLR 74 74     100%   76 30.01        
Aug 05 00:15 Calm 10 Clear CLR 75 74     98%   77 30        
Aug 04 23:55 SSE 5 10 Clear CLR 75 75     98%   77 30        
Aug 04 23:35 Calm 10 Clear CLR 76 75     97%   78 30        
Aug 04 23:15 Calm 10 Clear CLR 76 75     97%   78 30        
Aug 04 22:55 SSW 3 10 Clear CLR 76 75     96%   78 30.02        
Aug 04 22:35 S 3 10 Clear CLR 77 75     94%   78 30.02        
Aug 04 22:15 Calm 10 Clear CLR 77 75     93%   79 30.02        
Aug 04 21:55 SW 3 10 Clear CLR 77 75     93%   79 30.02        
Aug 04 21:35   10 Clear CLR 78 75     93%   79 30.01        
Aug 04 21:15 SSW 3 10 Clear CLR 78 75     91%   80 30        
Aug 04 20:55 SSE 5 10 Clear CLR 79 75     89%   82 30        
Aug 04 20:35 Calm 10 Partly Cloudy SCT022 79 74     85%   82 29.99        
Aug 04 20:15 Calm 10 Mostly Cloudy BKN022 BKN029 81 73     77%   85 30        
Aug 04 19:55 Calm 10 Partly Cloudy SCT025 81 72     74%   85 30        
Aug 04 19:35 Calm 10 Partly Cloudy SCT047 81 72     74%   86 29.99        
Aug 04 19:15 NW 7 10 Mostly Cloudy BKN045 83 72     69%   89 29.99        
Aug 04 18:55 Calm 10 Partly Cloudy SCT043 85 72     65%   91 29.99        
Aug 04 18:35   10 Clear CLR 86 71     60%   91 29.98        
Aug 04 18:15   10 Partly Cloudy SCT120 88 71     57%   93 29.98        
Aug 04 17:40   10 Partly Cloudy SCT041 SCT050 SCT090 88 70     56%   93 29.97        
Aug 04 16:15 SW 5 10 Mostly Cloudy BKN044 89 71     55%   95 29.97        
Aug 04 15:35 WNW 5 10 Partly Cloudy SCT042 88 70     55%   93 29.97        
Aug 04 15:15 S 3 10 Clear CLR 89 71     56%   94 29.98        
Aug 04 14:55 SSE 5 10 Mostly Cloudy SCT043 BKN049 86 70     60%   91 29.99        
Aug 04 14:30 ESE 3 10 Mostly Cloudy BKN040 BKN046 86 71     60%   92 30        
Aug 04 14:15 N 3 10 Partly Cloudy SCT038 88 70     57%   93 30.01        
Aug 04 13:35 Calm 10 Mostly Cloudy SCT033 BKN050 BKN080 85 71     61%   90 30.02        
Aug 04 13:15 Calm 10 Mostly Cloudy SCT042 BKN050 BKN070 85 71     63%   90 30.03        
Aug 04 11:50 Calm 10 Partly Cloudy SCT024 84 72     66%   90 30.05        
Aug 04 11:35 E 3 10 Partly Cloudy SCT024 85 72     65%   91 30.06        
Aug 04 11:15 Calm 10 Partly Cloudy SCT020 SCT085 82 71     69%   87 30.07        
Aug 04 10:50 Calm 10 Cloudy OVC016 80 72     76%   85 30.07        
Aug 04 10:35 Calm 10 Cloudy OVC014 78 72     82%   80 30.07        
Aug 04 10:15 Calm 10 Cloudy OVC012 78 72     82%   80 30.06        
Aug 04 09:55   10 Cloudy OVC008 78 73     86%   79 30.06        
Aug 04 09:35 NNE 3 10 Cloudy OVC006 77 72     86%   78 30.06        
Aug 04 09:15   10 Cloudy OVC006 75 72     91%   76 30.06        
Aug 04 08:50   7 Cloudy OVC004 74 72     96%   75 30.07        
Aug 04 08:35   10 Cloudy OVC004 73 72     97%   75 30.07        
Aug 04 08:15 Calm 7 Cloudy OVC004 73 72     98%   74 30.07        
Aug 04 07:55   7 Cloudy OVC004 72 72     99%   74 30.08        
Aug 04 07:30 Calm 4 Fog/Mist OVC004 72 72     100%   74 30.07        
Aug 04 07:10 Calm 4 Fog/Mist OVC004 72 72     100%   74 30.07        
Aug 04 06:50 Calm 5 Fog/Mist OVC004 72 72     100%   74 30.06        
Aug 04 06:35 Calm 5 Fog/Mist OVC004 72 72     100%   74 30.06        
Aug 04 06:10 SSW 9 7 Cloudy OVC004 72 72     100%   74 30.05        
Aug 04 05:55 SSE 3 7 Cloudy OVC004 72 72     100%   74 30.04        
Aug 04 05:35 SSE 3 7 Cloudy OVC004 72 72     100%   73 30.04        
Aug 04 05:15 S 5 7 Cloudy OVC004 72 72     100%   73 30.04        
Aug 04 04:50 Calm 7 Cloudy OVC004 72 72     100%   73 30.03        
Jun 11 22:55   10 Clear CLR 73 73     100%   75 30.11        
Notice The following observation data may not be complete
Jun 11 18:15   7 Light Rain SCT046 SCT065 OVC110          %         0    
Notice The following observation data may not be complete
Jun 11 17:35   10 Light Rain SCT027 SCT032 OVC048   72      %     30.07        
Jun 11 16:55 ESE 7 10 Mostly Cloudy BKN048 BKN055 89 71     55%   94 30.04        
Jun 11 15:15 E 7 10 Partly Cloudy SCT050 88 69     52%   93 30.07        
Notice The following observation data may not be complete
Jun 11 14:35   10 Mostly Cloudy BKN050          %              
Jun 11 10:15 SSE 10 10 Clear CLR 82 67     60%   85 30.13        
Jun 10 10:15 SSE 3 10 Clear CLR 80 67     64%   83 30.06        
Jun 10 08:55   0.25 Cloudy OVC080 76 68     76%   77 30.06        
Jun 10 08:35 Calm 0.25 Cloudy OVC080 74 68     81%   75 30.05        
Jun 10 03:55 Calm 10 Partly Cloudy SCT075 64 64     100%     29.98        
Jun 10 02:35 Calm 10 Cloudy SCT065 OVC075 64 64     100%     29.98        
Jun 10 01:55 S 7 10 Cloudy OVC075 65 64     97%     29.98        
Notice The following observation data may not be complete
Jun 09 23:35   10 Clear CLR          %              
Notice The following observation data may not be complete
Jun 09 20:35   10 Clear CLR          %              
Jun 09 16:15 Calm 10 Clear CLR 82 57     43%   82 29.92        
Jun 09 11:35   10 Clear CLR 79 60     51%   79 29.98        
Jun 09 03:35 Calm 10 Clear CLR 60 59     97%     29.89        
Jun 09 02:55 WNW 3 10 Clear   60 60     99%     29.9        
Jun 09 02:35 Calm 10 Clear CLR 61 60     97%     29.9        
Jun 09 00:15 NNW 6 10 Clear CLR 65 60     83%     29.91        
Jun 08 23:55 NNW 3 10 Clear CLR 65 60     85%     29.91        
Jun 08 16:50 NW 6 10 Clear CLR 80 57     45%   80 29.86        
Jun 08 13:30 WNW 11 10 Partly Cloudy SCT050 79 59     50%   79 29.9        
Jun 08 07:55 N 3 10 Clear   67 58     71%     29.92        
Jun 08 03:15 N 6 10 Clear CLR 64 55     73%     29.84        
Jun 07 17:50   10 Clear CLR 82 59     47%   82 29.79        
Jun 07 08:15 N 7 10 Clear CLR 71 64     78%   72 29.79        
Jun 06 14:55 NE 3 10 Rain SCT005 BKN047 OVC070 70 70     99%   72 29.72   1    
Jun 06 09:15   10 Cloudy OVC005 75 73     94%   76 29.77        
Jun 05 19:35 SSE 5 10 Light Rain SCT050 SCT065 BKN095 70 70     99%     29.77   0